Вернуться в каталог

COSMOS 1692

АктивенНавигацияPO
NORAD 16140·PAYLOAD·🇷🇺 Russia

Запущен Oct 9, 1985 с Plesetsk Cosmodrome

Loading…

Ближайшие Пролёты (ближайшие 24 часа)

TLE

СвежийSource: Space-Track

Эпоха: Sep 14, 2026, 05:19 UTC

1 16140U 85094C   26257.22214486  .00000010  00000-0 -57565-5 0  9994
2 16140  82.6052 173.5603 0017898 160.5877 353.1932 12.64914780889631

Отслеживайте COSMOS 1692 в реальном времени с AllMySat

Download on the App Store